{"data":{"norad_id":63272,"epoch":"2026-05-25T00:26:52.781280Z","epoch_age_seconds":80251,"freshness":"FRESH","line1":"1 63272U 25053H   26145.01866645  .00160664  00000+0  12310-2 0  9990","line2":"2 63272  43.0008  12.1813 0002832 243.8552 116.2025 15.70847139 69677","mean_motion":15.70847139,"eccentricity":0.0002832,"inclination_deg":43.0008,"raan_deg":12.1813,"arg_perigee_deg":243.8552,"mean_anomaly_deg":116.2025,"bstar":0.001231,"rev_number":6967,"period_min":91.670281865663,"perigee_km":354.56741502648,"apogee_km":358.38189906903,"semimajor_km":6734.6116570478,"source":"CELESTRAK","updated_at":"2026-05-25T13:38:19.925455Z"}}